TimeCDT,TemperatureF,Dew PointF,Humidity,Sea Level PressureIn,VisibilityMPH,Wind Direction,Wind SpeedMPH,Gust SpeedMPH,PrecipitationIn,Events,Conditions,WindDirDegrees,DateUTC
12:53 AM,66.9,62.1,84,29.90,10.0,NNE,11.5,23.0,N/A,,Overcast,30,2012-05-07 05:53:00
1:01 AM,66.2,62.6,88,29.92,10.0,NNE,12.7,-,N/A,,Overcast,30,2012-05-07 06:01:00
1:17 AM,66.2,62.6,88,29.93,10.0,NNE,10.4,-,0.00,Rain-Thunderstorm,Light Rain,20,2012-05-07 06:17:00
1:53 AM,64.9,62.1,90,29.92,10.0,North,6.9,-,0.00,Rain,Light Rain,360,2012-05-07 06:53:00
2:00 AM,64.4,62.6,94,29.95,10.0,NNW,9.2,17.3,0.00,Rain,Light Rain,340,2012-05-07 07:00:00
2:13 AM,64.4,62.6,94,29.95,10.0,NNW,10.4,-,0.00,Rain,Light Rain,340,2012-05-07 07:13:00
2:31 AM,62.6,62.6,100,29.96,2.5,North,8.1,16.1,0.03,Rain-Thunderstorm,Heavy Rain,350,2012-05-07 07:31:00
2:40 AM,62.6,62.6,100,29.97,3.0,North,11.5,-,0.12,Rain-Thunderstorm,Light Thunderstorms and Rain,10,2012-05-07 07:40:00
2:53 AM,64.0,62.1,93,29.96,7.0,North,8.1,-,0.14,Rain-Thunderstorm,Light Rain,360,2012-05-07 07:53:00
3:00 AM,62.6,62.6,100,29.98,5.0,North,3.5,-,0.01,Rain-Thunderstorm,Rain,360,2012-05-07 08:00:00
3:13 AM,64.4,62.6,94,29.98,8.0,North,4.6,-,0.02,Rain,Light Rain,350,2012-05-07 08:13:00
3:20 AM,64.4,62.6,94,29.98,9.0,NNW,6.9,-,0.02,Rain-Thunderstorm,Light Rain,340,2012-05-07 08:20:00
3:35 AM,62.6,62.6,100,29.98,8.0,NNW,6.9,-,0.03,Rain,Light Rain,340,2012-05-07 08:35:00
3:53 AM,63.0,62.1,97,29.97,10.0,North,9.2,-,0.04,,Overcast,350,2012-05-07 08:53:00
4:21 AM,62.6,60.8,94,29.98,9.0,North,11.5,-,0.01,Rain-Thunderstorm,Light Rain,350,2012-05-07 09:21:00
4:30 AM,62.6,60.8,94,29.98,6.0,North,12.7,-,0.02,Rain,Rain,350,2012-05-07 09:30:00
4:42 AM,62.6,60.8,94,29.98,4.0,North,11.5,-,0.07,Rain,Heavy Rain,360,2012-05-07 09:42:00
4:53 AM,62.1,61.0,96,29.96,6.0,North,12.7,-,0.10,Rain,Rain,360,2012-05-07 09:53:00
5:20 AM,62.6,60.8,94,29.99,10.0,North,15.0,20.7,0.03,Rain,Light Rain,360,2012-05-07 10:20:00
5:27 AM,62.6,60.8,94,29.99,10.0,North,10.4,19.6,0.04,Rain,Light Rain,350,2012-05-07 10:27:00
5:30 AM,62.6,60.8,94,29.99,10.0,North,9.2,19.6,0.04,Rain,Light Rain,350,2012-05-07 10:30:00
5:42 AM,62.6,60.8,94,30.00,10.0,North,13.8,18.4,0.04,,Overcast,350,2012-05-07 10:42:00
5:53 AM,61.0,59.0,93,29.98,10.0,North,17.3,27.6,0.04,,Overcast,360,2012-05-07 10:53:00
6:00 AM,60.8,59.0,94,30.01,10.0,North,10.4,27.6,N/A,,Overcast,350,2012-05-07 11:00:00
6:18 AM,60.8,57.2,88,30.01,10.0,North,12.7,25.3,N/A,,Overcast,360,2012-05-07 11:18:00
6:53 AM,60.1,57.0,90,30.02,10.0,North,16.1,23.0,N/A,,Overcast,360,2012-05-07 11:53:00
7:18 AM,60.8,55.4,82,30.04,10.0,North,17.3,27.6,N/A,,Overcast,360,2012-05-07 12:18:00
7:53 AM,60.1,55.0,83,30.03,10.0,North,12.7,19.6,N/A,,Overcast,10,2012-05-07 12:53:00
8:53 AM,61.0,53.1,75,30.04,10.0,NNE,9.2,20.7,N/A,,Overcast,20,2012-05-07 13:53:00
9:53 AM,64.0,53.1,67,30.04,10.0,North,8.1,17.3,N/A,,Mostly Cloudy,10,2012-05-07 14:53:00
10:53 AM,66.9,48.9,52,30.06,10.0,NNE,16.1,23.0,N/A,,Mostly Cloudy,30,2012-05-07 15:53:00
11:53 AM,69.1,50.0,51,30.07,10.0,North,16.1,27.6,N/A,,Clear,10,2012-05-07 16:53:00
12:53 PM,71.1,48.9,45,30.06,10.0,North,13.8,21.9,N/A,,Clear,360,2012-05-07 17:53:00
1:53 PM,73.0,50.0,44,30.06,10.0,NNW,12.7,18.4,N/A,,Clear,340,2012-05-07 18:53:00
2:53 PM,73.0,46.9,39,30.06,10.0,NNW,13.8,21.9,N/A,,Clear,340,2012-05-07 19:53:00
3:53 PM,73.0,45.0,37,30.03,10.0,North,12.7,-,N/A,,Clear,350,2012-05-07 20:53:00
4:53 PM,73.0,45.0,37,30.01,10.0,North,17.3,-,N/A,,Clear,360,2012-05-07 21:53:00
5:53 PM,72.0,44.1,37,30.01,10.0,North,17.3,-,N/A,,Clear,350,2012-05-07 22:53:00
6:53 PM,68.0,46.0,45,30.00,10.0,North,8.1,-,N/A,,Clear,350,2012-05-07 23:53:00
7:53 PM,66.0,46.9,50,30.00,10.0,North,8.1,-,N/A,,Clear,350,2012-05-08 00:53:00
8:53 PM,64.0,46.0,52,30.02,10.0,North,5.8,-,N/A,,Scattered Clouds,360,2012-05-08 01:53:00
9:53 PM,64.0,46.0,52,30.06,10.0,NW,5.8,-,N/A,,Overcast,310,2012-05-08 02:53:00
10:53 PM,63.0,45.0,52,30.06,10.0,NW,9.2,-,N/A,,Overcast,320,2012-05-08 03:53:00
11:53 PM,57.0,45.0,64,30.06,10.0,NW,6.9,-,N/A,,Clear,320,2012-05-08 04:53:00